FW5207 Weather Reports


Display with metric or nautical units.
time (UTC)temp
F
wind
direction
speed
MPH
gust
MPH
rain 1hr
in
rain 24hr
in
rain mn
in
humidity
%
barometer
mb
20260504050117 39 149 11.0 22.0 0.03 0.64 0.04 97 974.5
20260504044546 39 191 9.0 17.0 0.04 0.64 0.04 97 975.4
20260504043043 39 173 9.0 19.0 0.02 0.62 0.02 97 976.4
20260504041538 39 186 9.0 21.0 0.02 0.61 0.02 97 977.4
20260504040041 39 145 11.0 24.0 0.01 0.61 0.01 97 977.5
20260504034545 39 156 9.0 20.0 0.00 0.60 0.00 96 978.7
20260504033031 40 180 9.0 24.0 0.00 0.60 0.00 96 979.7
20260504031527 40 190 7.0 17.0 0.00 0.60 0.00 96 980.4
20260504030035 41 221 4.0 18.0 0.00 0.60 0.00 97 981.1
20260504024519 41 164 6.0 15.0 0.00 0.60 0.60 97 981.8
20260504023016 42 201 4.0 12.0 0.01 0.60 0.60 98 982.5
20260504021513 42 180 6.0 21.0 0.02 0.60 0.60 98 983.1
20260504020011 42 201 6.0 16.0 0.02 0.60 0.60 99 983.4
20260504014517 42 156 6.0 15.0 0.03 0.60 0.60 99 983.9
20260504013008 41 213 5.0 19.0 0.04 0.59 0.59 98 984.6
20260504011504 41 169 4.0 12.0 0.05 0.57 0.57 99 985.1
20260504010125 40 96 3.0 10.0 0.06 0.56 0.56 98 986.2
20260504004558 39 232 3.0 11.0 0.07 0.56 0.56 98 987.0
20260504003055 39 350 4.0 10.0 0.10 0.55 0.55 98 987.7
20260504001608 38 151 5.0 13.0 0.14 0.54 0.54 98 988.6
20260504000051 38 325 4.0 12.0 0.17 0.51 0.51 98 989.5
20260503234547 38 253 3.0 8.0 0.20 0.50 0.50 98 989.8
20260503233045 38 331 4.0 12.0 0.17 0.44 0.44 98 990.8
20260503231548 38 331 4.0 12.0 0.14 0.39 0.39 98 992.1
20260503230041 38 350 2.0 9.0 0.12 0.34 0.34 98 993.4
20260503224534 38 68 3.0 8.0 0.09 0.28 0.28 98 993.9
20260503223033 38 356 2.0 6.0 0.13 0.28 0.28 98 994.6
20260503221529 38 302 2.0 9.0 0.13 0.24 0.24 98 995.3
20260503220035 37 341 2.0 8.0 0.15 0.22 0.22 98 996.0
20260503214526 37 57 3.0 10.0 0.13 0.19 0.19 98 996.5
20260503213041 37 59 2.0 9.0 0.10 0.15 0.15 97 996.7
20260503211525 36 259 3.0 11.0 0.07 0.12 0.12 97 996.6
20260503210020 36 25 2.0 14.0 0.02 0.07 0.07 97 997.8
20260503204518 36 15 3.0 11.0 0.02 0.06 0.06 97 998.9
20260503203022 36 123 3.0 11.0 0.01 0.05 0.05 97 999.4
20260503201515 35 315 3.0 10.0 0.01 0.05 0.05 96 1000.2
20260503200012 35 348 3.0 18.0 0.02 0.05 0.05 96 1000.8
20260503194510 35 246 2.0 9.0 0.02 0.04 0.04 95 1001.9
20260503193008 36 20 4.0 11.0 0.04 0.04 0.04 95 1002.0
20260503191504 37 84 3.0 9.0 0.04 0.04 0.04 94 1003.5
20260503190004 39 347 2.0 9.0 0.03 0.03 0.03 93 1003.6
20260503184634 40 25 1.0 5.0 0.02 0.02 0.02 92 1005.2
20260503183107 40 156 1.0 8.0 0.00 0.00 0.00 90 1005.8
20260503181557 41 20 1.0 6.0 0.00 0.00 0.00 88 1006.2
20260503180054 41 139 1.0 6.0 0.00 0.00 0.00 88 1007.1
20260503174609 41 173 0.0 4.0 0.00 0.00 0.00 88 1007.5
20260503173107 41 34 2.0 7.0 0.00 0.00 0.00 87 1008.1
20260503171549 42 169 1.0 3.0 0.00 0.00 0.00 86 1008.8
20260503081554 33 25 0.0 0.0 0.00 0.01 0.00 98 1015.8
20260503071601 32 203 0.0 0.0 0.00 0.03 0.00 98 1015.9
20260503054535 33 191 0.0 0.0 0.00 0.54 0.00 97 1016.1